METAR AND TAF INFORMATION
METAR FOR KDEN
KDEN 230353Z 14005KT 9SM CLR 19/11 A3024 RMK AO2 SLP167 T01890106
KDEN 230253Z 10006KT 9SM FEW100 20/11 A3022 RMK AO2 SLP161 T02000106 51006
KDEN 230153Z 07006KT 8SM FEW100 23/10 A3021 RMK AO2 SLP159 T02330100
KDEN 230520Z 2306/2412 20009KT P6SM FU SKC
FM231100 24007KT P6SM FU SKC
FM231600 VRB05KT P6SM FU FEW250
FM231900 05007KT P6SM FU FEW250
FM240000 08008KT P6SM FU FEW250
FM240200 14009KT P6SM FU FEW250
FM240600 18011KT P6SM FU SKC

 AIRPORT MAP

 RUNWAY INFORMATION
Runway 07 Runway length 12000 ft Runway width 150 ft
Runway elevation 5347 ft Runway displaced threshold 0 ft Runway heading 91
Runway 25 Runway length 12000 ft Runway width 150 ft
Runway elevation 5352 ft Runway displaced threshold 0 ft Runway heading 271
Runway 08 Runway length 12000 ft Runway width 150 ft
Runway elevation 5351 ft Runway displaced threshold 0 ft Runway heading 91
Runway 26 Runway length 12000 ft Runway width 150 ft
Runway elevation 5291 ft Runway displaced threshold 0 ft Runway heading 271
Runway 16L Runway length 12000 ft Runway width 150 ft
Runway elevation 5347 ft Runway displaced threshold 0 ft Runway heading 181
Runway 34R Runway length 12000 ft Runway width 150 ft
Runway elevation 5351 ft Runway displaced threshold 0 ft Runway heading 1
Runway 16R Runway length 16000 ft Runway width 200 ft
Runway elevation 5319 ft Runway displaced threshold 0 ft Runway heading 181
Runway 34L Runway length 16000 ft Runway width 200 ft
Runway elevation 5324 ft Runway displaced threshold 0 ft Runway heading 1
Runway 17L Runway length 12000 ft Runway width 150 ft
Runway elevation 5325 ft Runway displaced threshold 0 ft Runway heading 181
Runway 35R Runway length 12000 ft Runway width 150 ft
Runway elevation 5367 ft Runway displaced threshold 0 ft Runway heading 1
Runway 17R Runway length 12000 ft Runway width 150 ft
Runway elevation 5374 ft Runway displaced threshold 0 ft Runway heading 181
Runway 35L Runway length 12000 ft Runway width 150 ft
Runway elevation 5431 ft Runway displaced threshold 0 ft Runway heading 1

 AIRPORT FREQUENCIES
Type APP Name APP Frequency 119.3 MHZ
Type ATIS Name ATIS Frequency 125.6 MHZ
Type CLD Name CLNC DEL Frequency 118.75 MHZ
Type DEP Name DEP Frequency 126.1 MHZ
Type GND Name GND Frequency 121.85 MHZ
Type RDO Name RDO Frequency 123.65 MHZ
Type TWR Name TWR Frequency 124.3 MHZ
Type UNIC Name UNICOM Frequency 122.95 MHZ

 AIRPORT NEAR NAVIGATION AIDS
Type VORTAC Name Mile High Frequency 114700 KHZ

-